This demonstration page uses our WeatherBlox Daily Observations layout. Learn more.

Left ArrowRight Arrow

Hourly Observations for June 22, 2020

Temp ( °F °C ) Dew Point ( °F °C ) Humidity (%) Winds ( mph kmh ) Pressure ( in mb ) Visibility ( mi km ) Precip ( " mm )
12:53 am 00:53 Clear 54 12.2 53 11.7 97 97 N N/A 29.96 1015 10 16 N/A
1:53 am 01:53 Clear 55 12.8 52 11.1 90 90 SW 13 20 29.98 1015 10 16 N/A
2:53 am 02:53 Clear 53 11.7 51 10.6 93 93 WSW 5 7 30.01 1016 10 16 N/A
3:53 am 03:53 Clear 52 11.1 50 10 93 93 N N/A 30.00 1016 10 16 N/A
4:53 am 04:53 Clear 49 9.4 48 8.9 97 97 WSW 3 6 30.00 1016 10 16 N/A
5:53 am 05:53 Sunny 50 10 48 8.9 93 93 W 3 6 30.01 1016 10 16 N/A
6:53 am 06:53 Sunny 53 11.7 51 10.6 93 93 W 3 6 30.03 1017 10 16 N/A
7:53 am 07:53 Partly Cloudy 57 13.9 52 11.1 83 83 WSW 5 7 30.05 1018 10 16 N/A
8:53 am 08:53 Mostly Sunny 61 16.1 54 12.2 78 78 WSW 7 11 30.06 1018 10 16 N/A
9:53 am 09:53 Sunny 66 18.9 55 12.8 68 68 SW 6 9 30.08 1019 10 16 N/A
10:53 am 10:53 Sunny 70 21.1 55 12.8 59 59 SW 3 6 30.07 1018 10 16 N/A
11:53 am 11:53 Sunny 73 22.8 52 11.1 48 48 N N/A 30.06 1018 10 16 N/A
12:53 pm 12:53 Sunny 74 23.3 54 12.2 50 50 VRB 6 9 30.06 1018 10 16 N/A
1:53 pm 13:53 Mostly Sunny 77 25 53 11.7 43 43 undefined N/A 30.05 1018 10 16 N/A
2:53 pm 14:53 Sunny 79 26.1 51 10.6 38 38 NW 5 7 30.04 1017 10 16 N/A
3:53 pm 15:53 Sunny 80 26.7 50 10 35 35 W 7 11 30.03 1017 10 16 N/A
4:53 pm 16:53 Mostly Cloudy 81 27.2 51 10.6 35 35 SW 6 9 30.02 1017 10 16 N/A
5:53 pm 17:53 Mostly Cloudy 81 27.2 50 10 34 34 W 12 19 30.01 1016 10 16 N/A
6:53 pm 18:53 Sunny 81 27.2 51 10.6 35 35 NW 9 15 30.01 1016 10 16 N/A
7:53 pm 19:53 Partly Cloudy 79 26.1 54 12.2 42 42 N N/A 30.00 1016 10 16 N/A
8:53 pm 20:53 Sunny 74 23.3 56 13.3 54 54 SSE 3 6 30.00 1016 10 16 N/A
9:53 pm 21:53 Mostly Clear 66 18.9 56 13.3 70 70 N N/A 30.01 1016 10 16 N/A
10:53 pm 22:53 Clear 65 18.3 54 12.2 68 68 SSE 6 9 30.01 1016 10 16 N/A
11:53 pm 23:53 Clear 60 15.6 53 11.7 78 78 S 6 9 30.01 1016 10 16 N/A

Powered by AerisWeather